User: anonymous   Login
Location: Caltech
(34.1382°N, 118.1253°W)
Time: 14:10:32
(UTC-07:00)
Language:

SL-16 R/B - Orbit

View from above orbital plane
View from above orbital plane
View from above satellite
View from above satellite

Ground track
Ground track

The orbit data is extracted from the following two-line orbital elements,

1 28353U 04021B   16125.24021852 -.00000235  00000-0 -98303-4 0  9996
2 28353  71.0009 216.0767 0002936 110.7702 249.3735 14.14169994614346
Epoch (UTC): 04 May 2016 05:45:54
Eccentricity: 0.0002936
inclination: 71.0009°
perigee height: 843 km
apogee height: 847 km
right ascension of ascending node: 216.0767°
argument of perigee: 110.7702°
revolutions per day: 14.14169994
mean anomaly at epoch: 249.3735°
orbit number at epoch: 61434

The dashed part of the orbit path shows where the satellite is in the earth's shadow,  

DLR